Regional Weather Roundup
Issued by NWS State College, PA

Home | Current Version | Previous Version | Text Only | Print | Product List | Glossary Off
Versions: 1 2 3 4 5 6 7 8 9 10 11 12 13 14 15 16 17 18 19 20 21 22 23 24 25 26 27 28 29 30 31 32 33 34 35 36 37 38 39 40 41 42 43 44 45 46 47 48 49 50

000
ASUS41 KCTP 190603
RWRCTP

REGIONAL WEATHER ROUNDUP
NATIONAL WEATHER SERVICE STATE COLLEGE PA
100 AM EST MON FEB 19 2018

Note: "fair" indicates few or no clouds below 12,000 feet with no
significant weather and/or obstructions to visibility.

* = STATION THAT DOES NOT REPORT PRECIPITATION /E.G. RAIN...SNOW...ETC/
    THUNDER OR FOG.

PAZ002>004-007>009-013>016-020>023-029>032-190700-
WESTERN PENNSYLVANIA

CITY           SKY/WX    TMP DP  RH WIND       PRES   REMARKS
ERIE           FAIR      38  25  59 S14G24    30.15F
MEADVILLE      FAIR      33  25  72 VRB3      30.15F
FRANKLIN*      FAIR      32  25  75 SE12G18   30.19F
NEW CASTLE     FAIR      36  27  69 VRB5      30.18F
BEAVER COUNTY  NOT AVBL
BUTLER*        NOT AVBL
PITTSBURGH INT CLOUDY    34  27  75 SE8       30.17F
PITTSBURGH     FAIR      36  25  64 SE8       30.18F
INDIANA*       CLEAR     39  28  65 S9G20     30.27F
LATROBE        FAIR      41  27  56 SE9       30.22F
WASHINGTON CO* FAIR      34  27  75 CALM      30.20F
$$

PAZ004>006-010>012-017>019-024>028-033>037-041-042-045-046-049>053-190700-
CENTRAL PENNSYLVANIA

CITY           SKY/WX    TMP DP  RH WIND       PRES   REMARKS
BRADFORD       FAIR      31  23  72 S10       30.21F
DUBOIS         FAIR      32  23  69 SE15G23   30.22F
CLEARFIELD     FAIR      27  24  89 NE7       30.30F
JOHNSTOWN      FAIR      33  25  72 S15       30.25S
ALTOONA        FAIR      34  24  67 SW3       30.34F
STATE COLLEGE  FAIR      31  24  77 W3        30.35S
WILLIAMSPORT   FAIR      27  24  89 CALM      30.41S
SELINSGROVE    FAIR      26  23  88 CALM      30.44R
FT INDIANTOWN  FAIR      26  26 100 NE5       30.46S
CAPITAL CITY   FAIR      36  28  73 SE7       30.46S
HARRISBURG     FAIR      30  25  81 E3        30.46S
YORK           FAIR      34  29  82 SE7       30.45S
$$

PAZ038>040-043-044-047-048-054-055-060>062-067>071-190700-
EASTERN PENNSYLVANIA

CITY           SKY/WX    TMP DP  RH WIND       PRES   REMARKS
SCRANTON       FAIR      29  22  75 CALM      30.40F
MOUNT POCONO   NOT AVBL
ALLENTOWN      FAIR      28  22  78 CALM      30.49R
QUAKERTOWN*    CLEAR     21  21 100 CALM      30.49R
READING        FAIR      28  27  96 CALM      30.48R
LANCASTER      FAIR      29  27  92 E6        30.47R
COATESVILLE    FAIR      32 N/A N/A CALM      30.49R
POTTSTOWN      FAIR      26  24  92 CALM      30.51R
BLUE BELL      FAIR      27  27 100 CALM      30.51S
DOYLESTOWN     FAIR      27  23  85 CALM      30.49S
WILLOW GROVE   NOT AVBL
NORTH PHILA    FAIR      34  26  72 CALM      30.51F
PHILADELPHIA   FAIR      34  27  75 CALM      30.51F
$$




USA.gov is the U.S. government's official web portal to all federal, state and local government web resources and services.